This is the latest recevied weather packets stored in our database for station/object IW8ELN-11. If no packets are shown the sender has not sent any weather packets the latest 10 day(s).
| Time | Temp. | Humidity | Pressure | Rain* | Wind** | Luminosity | Snow |
|---|---|---|---|---|---|---|---|
| 1788133650 | 87° F | 45% | 721.3 mmHg | - | - | - | - |
| 1788130049 | 86° F | 44% | 721.4 mmHg | - | - | - | - |
| 1788126448 | 86° F | 41% | 721.3 mmHg | - | - | - | - |
| 1788122851 | 83° F | 38% | 721.2 mmHg | - | - | - | - |
| 1788119251 | 84° F | 39% | 721 mmHg | - | - | - | - |
| 1788115650 | 84° F | 41% | 720.7 mmHg | - | - | - | - |
| 1788112049 | 85° F | 42% | 720 mmHg | - | - | - | - |
| 1788108448 | 85° F | 40% | 719.7 mmHg | - | - | - | - |
| 1788104847 | 86° F | 37% | 719.8 mmHg | - | - | - | - |
| 1788101253 | 86° F | 42% | 719.9 mmHg | - | - | - | - |
| 1788097653 | 85° F | 40% | 719.8 mmHg | - | - | - | - |
| 1788094052 | 85° F | 40% | 720.3 mmHg | - | - | - | - |
| 1788090451 | 87° F | 39% | 720.7 mmHg | - | - | - | - |
| 1788086850 | 88° F | 44% | 720.6 mmHg | - | - | - | - |
| 1788083250 | 89° F | 45% | 720.7 mmHg | - | - | - | - |
| 1788079650 | 88° F | 49% | 721 mmHg | - | - | - | - |
| 1788076050 | 88° F | 50% | 721.2 mmHg | - | - | - | - |
| 1788072449 | 88° F | 50% | 721.1 mmHg | - | - | - | - |
| 1788068848 | 88° F | 50% | 721.3 mmHg | - | - | - | - |
| 1788065247 | 88° F | 50% | 721.3 mmHg | - | - | - | - |
| 1788061647 | 88° F | 49% | 721.3 mmHg | - | - | - | - |
| 1788058049 | 87° F | 49% | 721.9 mmHg | - | - | - | - |
| 1788054448 | 87° F | 48% | 722.5 mmHg | - | - | - | - |
| 1788050847 | 87° F | 47% | 722.7 mmHg | - | - | - | - |
| 1788047247 | 86° F | 45% | 722.8 mmHg | - | - | - | - |
* Rain since midnight (hover to see other rain measurements)
** Current wind speed in m/s (hover to see current wind gust speed)